User: anonymous   Login
Location: Coche
(10.4506°N, 66.9257°W)
Time: 01:24:44
(UTC+00:00)
Language:

Cosmos 1356 Rocket - Orbit

View from above orbital plane
View from above orbital plane
View from above satellite
View from above satellite

Ground track
Ground track

The orbit data is extracted from the following two-line orbital elements,

1 13154U 82039B   22145.58868109  .00002082  00000-0  16533-3 0  9998
2 13154  81.1830 353.2004 0039548 175.5337 184.6244 14.99459857173588
Epoch (UTC): 25 May 2022 14:07:42
Eccentricity: 0.0039548
inclination: 81.1830°
perigee height: 541 km
apogee height: 596 km
right ascension of ascending node: 353.2004°
argument of perigee: 175.5337°
revolutions per day: 14.99459857
mean anomaly at epoch: 184.6244°
orbit number at epoch: 17358

The dashed part of the orbit path shows where the satellite is in the earth's shadow,  

DLR